Time[GMT],air_temperature[C](-3m),wind_speed[m/s](-4m),wind_gust[m/s](-4m),barometric_pressure[millibars](-3m),wind_2_direction[degrees_true](-4m),wind_2_gust[m/s](-4m),wind_2_gust_1s[m/s](-4m),wind_2_min[m/s](-4m),wind_2_percent_good[1](-4m),wind_2_speed[m/s](-4m),wind_direction[degrees_true](-4m),wind_gust_1s[m/s](-4m),wind_min[m/s](-4m)
2018-06-28 22:00,28.1,,,1015.35,103.60,7.77,8.60,3.59,1.00,6.36,,,
2018-06-28 23:00,28.4,,,1015.77,100.90,8.10,9.56,4.05,1.00,7.07,,,
2018-06-29 00:00,28.3,,,1016.25,94.00,8.29,9.77,4.42,1.00,6.88,,,
2018-06-29 01:00,28.3,,,1016.67,88.70,8.47,9.46,4.03,1.00,7.07,,,
2018-06-29 02:00,28.3,,,1017.09,88.80,8.81,10.11,4.33,1.00,7.20,,,
2018-06-29 03:00,28.3,,,1017.27,86.90,9.34,10.88,4.78,1.00,7.14,,,
2018-06-29 04:00,28.1,,,1016.97,88.80,9.52,10.42,4.71,1.00,7.97,,,
2018-06-29 05:00,28.1,,,1016.49,90.10,9.92,11.11,5.52,1.00,8.00,,,
2018-06-29 06:00,28.0,,,1016.13,84.90,9.88,11.27,5.04,1.00,7.58,,,
2018-06-29 07:00,28.0,,,1015.77,85.10,9.67,10.62,4.66,1.00,7.97,,,
2018-06-29 08:00,27.9,,,1015.83,80.90,9.67,11.07,3.94,1.00,8.13,,,
2018-06-29 09:00,27.8,,,1016.13,76.60,9.47,10.75,5.04,1.00,7.45,,,
2018-06-29 10:00,27.9,,,1016.55,81.60,9.41,10.41,4.73,1.00,7.63,,,
2018-06-29 11:00,28.0,,,1016.85,70.60,7.50,8.55,4.14,1.00,6.40,,,
2018-06-29 12:00,28.0,,,1017.15,75.40,8.80,9.91,4.18,1.00,7.46,,,
2018-06-29 13:00,28.1,,,1017.75,78.70,8.84,10.35,4.78,1.00,7.39,,,
2018-06-29 14:00,28.3,,,1017.87,79.40,9.39,10.08,4.79,1.00,8.02,,,
2018-06-29 15:00,28.4,,,1017.93,80.50,9.07,10.11,4.77,1.00,7.37,,,
2018-06-29 16:00,28.3,,,1017.87,83.80,8.10,9.62,4.55,1.00,7.09,,,
2018-06-29 17:00,28.6,,,1017.45,90.00,8.31,9.43,3.94,1.00,6.70,,,
2018-06-29 18:00,28.6,,,1016.79,88.60,8.36,9.20,3.73,1.00,6.73,,,
2018-06-29 19:00,28.6,,,1016.25,82.40,8.65,9.67,4.21,1.00,7.29,,,
2018-06-29 20:00,28.7,,,1015.77,90.70,8.62,9.77,4.51,1.00,7.05,,,
2018-06-29 21:00,28.6,,,1015.41,89.60,8.15,8.97,3.77,1.00,6.38,,,
2018-06-30 10:00,28.0,,,1015.65,78.90,11.69,13.55,5.43,1.00,9.01,,,
2018-06-30 11:00,28.0,,,1015.89,88.30,9.59,11.12,5.41,1.00,8.47,,,
2018-06-30 12:00,28.2,,,1015.95,91.50,9.90,11.33,5.49,1.00,8.32,,,
2018-06-30 13:00,28.2,,,1016.07,92.00,8.55,9.58,4.38,1.00,7.10,,,
2018-06-30 14:00,28.2,,,1016.01,94.30,9.69,10.44,4.42,1.00,8.06,,,
2018-06-30 15:00,28.3,,,1015.77,83.40,9.88,10.87,3.65,1.00,8.06,,,
2018-06-30 16:00,28.4,,,1015.53,80.50,8.91,9.92,4.53,1.00,7.50,,,
2018-06-30 17:00,28.4,,,1015.05,77.30,8.82,10.02,3.92,1.00,7.30,,,
2018-06-30 18:00,28.4,,,1014.81,69.60,8.24,8.98,4.25,1.00,7.05,,,
2018-06-30 19:00,28.4,,,1014.45,73.90,7.88,8.77,3.65,1.00,6.36,,,
2018-06-30 20:00,28.5,,,1013.97,73.60,8.18,9.48,3.98,1.00,6.90,,,
2018-06-30 21:00,28.6,,,1013.91,65.54,7.48,8.57,3.87,1.00,6.48,,,
2018-06-30 22:00,28.4,,,1014.03,60.27,7.62,8.82,3.50,1.00,6.26,,,
2018-06-30 23:00,28.2,,,1014.33,55.86,8.94,9.27,3.90,1.00,6.78,,,
2018-07-01 00:00,28.3,,,1014.81,62.33,7.57,8.45,3.97,1.00,6.51,,,
2018-07-01 01:00,28.2,,,1015.65,63.49,7.43,8.51,3.39,1.00,5.90,,,
2018-07-01 02:00,28.1,,,1015.83,71.60,7.68,8.45,3.79,1.00,6.29,,,
2018-07-01 03:00,28.1,,,1016.01,74.90,7.58,8.72,3.54,1.00,6.25,,,
2018-07-01 04:00,28.0,,,1015.71,66.80,7.04,8.11,3.09,1.00,6.03,,,
2018-07-01 05:00,28.0,,,1015.05,66.14,7.71,9.01,4.23,1.00,6.49,,,
2018-07-01 06:00,27.9,,,1014.45,67.10,8.07,9.15,4.23,1.00,6.79,,,
2018-07-01 07:00,27.9,,,1014.21,65.18,8.55,9.48,3.30,1.00,6.77,,,
2018-07-01 08:00,27.8,,,1014.09,78.00,8.10,9.92,3.94,1.00,6.49,,,
2018-07-01 09:00,27.8,,,1014.03,72.80,7.80,9.38,3.62,1.00,6.09,,,
2018-07-01 10:00,27.9,,,1014.21,59.97,7.92,9.12,3.56,1.00,6.59,,,
2018-07-01 11:00,28.0,,,1014.39,65.05,8.47,9.06,4.23,1.00,6.52,,,
2018-07-01 12:00,28.1,,,1014.39,63.14,7.39,8.45,3.95,1.00,5.90,,,
2018-07-01 13:00,28.2,,,1014.51,70.40,7.75,8.83,3.92,1.00,6.78,,,
2018-07-01 14:00,28.2,,,1014.75,70.20,7.51,8.88,3.35,1.00,5.94,,,
2018-07-01 15:00,28.2,,,1014.69,77.90,7.96,8.71,3.57,1.00,6.44,,,
2018-07-01 16:00,28.4,,,1014.39,82.00,7.53,8.16,4.14,1.00,6.02,,,
2018-07-01 17:00,28.4,,,1014.09,82.80,7.37,8.51,3.50,1.00,6.11,,,
2018-07-01 18:00,28.4,,,1013.91,83.20,6.69,7.46,3.10,1.00,5.66,,,
2018-07-01 19:00,28.4,,,1013.67,82.40,5.45,6.26,2.68,1.00,4.53,,,
2018-07-01 20:00,28.5,,,1013.37,86.60,4.97,5.81,2.42,1.00,4.09,,,
2018-07-01 21:00,28.5,,,1013.19,70.50,5.99,6.91,2.79,1.00,4.53,,,
2018-07-01 22:00,28.5,,,1013.61,71.80,6.41,7.51,3.44,1.00,5.11,,,
2018-07-01 23:00,28.3,,,1014.09,63.17,5.68,6.60,2.72,1.00,4.40,,,
2018-07-02 00:00,28.3,,,1014.75,66.38,7.23,8.07,3.55,1.00,5.90,,,
2018-07-02 01:00,28.2,,,1014.99,62.48,7.18,8.34,3.54,1.00,5.66,,,
2018-07-02 02:00,28.2,,,1015.23,57.27,7.36,8.21,3.96,1.00,6.12,,,
2018-07-02 03:00,28.1,,,1015.17,59.43,7.33,8.22,3.84,1.00,5.89,,,
2018-07-02 04:00,28.2,,,1014.81,77.50,7.57,9.17,3.71,1.00,6.69,,,
2018-07-02 05:00,28.1,,,1014.21,74.40,8.17,9.35,3.86,1.00,6.67,,,
2018-07-02 06:00,28.0,,,1013.85,88.50,7.51,8.22,3.09,1.00,6.34,,,
2018-07-02 07:00,27.9,,,1013.19,95.60,7.70,8.70,3.72,1.00,6.21,,,
2018-07-02 08:00,27.9,,,1013.07,91.10,7.87,8.99,3.37,1.00,5.91,,,
2018-07-02 09:00,27.9,,,1013.01,79.00,6.99,8.09,3.03,1.00,5.70,,,
2018-07-02 10:00,27.9,,,1013.37,84.50,7.50,8.65,3.29,1.00,6.34,,,
2018-07-02 11:00,28.0,,,1013.79,85.40,7.09,8.43,3.51,1.00,5.97,,,
2018-07-02 12:00,28.2,,,1013.97,91.30,8.27,9.15,4.09,1.00,6.85,,,
2018-07-02 13:00,28.2,,,1014.21,83.80,7.02,8.40,3.61,1.00,5.85,,,
2018-07-02 14:00,28.4,,,1014.33,86.60,6.42,7.98,3.25,1.00,5.52,,,
2018-07-02 15:00,28.3,,,1014.57,75.30,6.90,7.35,2.75,1.00,5.53,,,
2018-07-02 16:00,28.4,,,1014.63,82.30,6.91,7.76,2.72,1.00,6.10,,,
2018-07-02 17:00,28.6,,,1014.75,90.00,7.22,8.33,3.64,1.00,5.98,,,
2018-07-02 18:00,28.5,,,1014.21,86.20,6.64,7.65,2.96,1.00,5.52,,,
2018-07-02 19:00,28.6,,,1013.61,82.30,7.73,8.44,3.88,1.00,6.45,,,
2018-07-02 20:00,28.6,,,1013.61,86.10,8.88,9.87,4.04,1.00,6.58,,,
2018-07-02 21:00,28.6,,,1013.73,91.30,7.99,9.15,4.38,1.00,6.64,,,
2018-07-02 22:00,28.6,,,1013.97,91.60,6.66,7.72,2.93,1.00,5.60,,,
2018-07-02 23:00,28.5,,,1014.21,82.90,7.22,8.59,3.58,1.00,6.05,,,
2018-07-03 00:00,28.5,,,1014.69,89.60,7.57,8.04,3.57,1.00,6.04,,,
2018-07-03 01:00,28.4,,,1015.11,82.70,8.53,8.93,3.40,1.00,6.03,,,
2018-07-03 02:00,28.3,,,1015.59,80.70,7.91,8.51,3.31,1.00,5.68,,,
2018-07-03 03:00,28.3,,,1015.41,90.10,9.55,10.30,4.43,1.00,7.87,,,
2018-07-03 04:00,28.2,,,1015.05,98.20,9.06,10.34,4.78,1.00,7.53,,,
2018-07-03 05:00,28.1,,,1014.63,98.00,8.69,9.84,4.44,1.00,7.21,,,
2018-07-03 06:00,28.0,,,1014.09,101.00,9.29,10.31,4.54,1.00,7.40,,,
2018-07-03 07:00,27.9,,,1014.03,99.20,8.33,9.79,4.01,1.00,7.05,,,
2018-07-03 08:00,27.9,,,1013.91,103.90,8.90,10.15,4.87,1.00,7.18,,,
2018-07-03 09:00,27.9,,,1014.09,100.20,9.95,10.65,4.37,1.00,7.97,,,
2018-07-03 10:00,27.9,,,1014.51,96.50,8.96,10.06,4.75,1.00,7.33,,,
2018-07-03 11:00,28.1,,,1015.05,96.80,10.66,11.13,5.01,1.00,8.19,,,
2018-07-03 12:00,28.1,,,1015.59,93.80,7.92,8.97,4.04,1.00,7.10,,,
2018-07-03 13:00,28.4,,,1016.07,104.70,9.52,10.59,5.03,1.00,7.92,,,
2018-07-03 14:00,28.4,,,1016.31,95.40,9.52,10.48,4.11,1.00,8.19,,,
2018-07-03 15:00,28.4,,,1016.61,91.80,8.27,10.07,4.35,1.00,6.81,,,
2018-07-03 16:00,28.4,,,1016.31,78.90,8.52,9.74,4.18,1.00,6.87,,,
2018-07-03 17:00,28.5,,,1016.37,75.90,8.81,10.38,3.37,1.00,7.41,,,
2018-07-03 18:00,28.5,,,1016.19,82.10,8.25,10.09,3.46,1.00,6.73,,,
2018-07-03 19:00,28.6,,,1016.01,76.50,7.41,9.02,3.75,1.00,6.53,,,
2018-07-03 20:00,28.6,,,1015.53,69.60,7.69,9.32,4.10,1.00,6.47,,,
2018-07-03 21:00,28.6,,,1015.35,70.20,8.35,9.79,4.03,1.00,6.93,,,
2018-07-03 22:00,28.5,,,1015.23,72.60,9.27,10.38,4.55,1.00,7.50,,,
2018-07-03 23:00,28.4,,,1015.59,65.97,8.58,9.69,4.18,1.00,6.50,,,
2018-07-04 00:00,28.4,,,1015.95,80.40,10.44,11.68,5.53,1.00,8.42,,,
2018-07-04 01:00,28.3,,,1016.55,77.50,11.28,13.03,5.45,1.00,8.94,,,
2018-07-04 02:00,,,,,,,,,,,,,
2018-07-04 03:00,28.2,,,1016.79,79.00,10.89,11.88,5.41,1.00,8.73,,,
2018-07-04 04:00,28.2,,,1016.55,86.50,10.48,11.49,5.18,1.00,8.39,,,
2018-07-04 05:00,27.9,,,1015.53,83.00,11.40,12.27,5.61,1.00,8.99,,,
2018-07-04 06:00,28.1,,,1015.17,86.50,11.11,12.24,4.96,1.00,8.71,,,
2018-07-04 07:00,28.2,,,1015.05,84.50,11.11,11.71,4.99,1.00,8.70,,,
2018-07-04 08:00,28.1,,,1015.41,84.20,9.75,10.91,4.89,1.00,8.12,,,
2018-07-04 09:00,28.1,,,1015.71,87.90,10.14,10.74,5.12,1.00,8.33,,,
2018-07-04 10:00,28.1,,,1015.95,76.50,10.40,12.17,5.68,1.00,8.83,,,
2018-07-04 11:00,28.2,,,1016.31,80.60,10.20,11.10,4.82,1.00,8.57,,,
2018-07-04 12:00,28.5,,,1016.55,85.10,10.42,11.52,6.03,1.00,8.34,,,
2018-07-04 13:00,28.5,,,1016.91,87.20,9.55,10.23,4.66,1.00,7.84,,,
2018-07-04 14:00,28.4,,,1017.15,81.90,9.91,10.97,4.97,1.00,8.07,,,
2018-07-04 15:00,28.5,,,1017.21,83.60,10.23,11.42,4.45,1.00,8.73,,,
2018-07-04 16:00,28.5,,,1017.09,89.40,9.77,10.84,4.91,1.00,8.12,,,
2018-07-04 17:00,28.7,,,1016.79,89.80,9.46,10.18,4.76,1.00,7.48,,,
2018-07-04 18:00,28.6,,,1016.37,76.80,8.76,9.46,4.52,1.00,7.22,,,
2018-07-04 19:00,28.6,,,1016.07,78.90,8.18,8.85,3.26,1.00,6.65,,,
2018-07-04 20:00,28.5,,,1015.59,76.30,8.18,9.15,3.84,1.00,7.05,,,
2018-07-04 21:00,28.5,,,1015.59,67.10,8.74,9.89,4.41,1.00,6.93,,,
2018-07-04 22:00,28.4,,,1015.83,67.90,9.05,10.10,4.32,1.00,7.52,,,
2018-07-04 23:00,28.3,,,1016.13,72.90,8.65,10.03,4.61,1.00,7.30,,,
2018-07-05 00:00,28.3,,,1016.55,68.10,8.88,10.01,4.06,1.00,7.47,,,
2018-07-05 01:00,28.2,,,1017.09,67.10,10.10,10.42,4.69,1.00,8.14,,,
2018-07-05 02:00,28.3,,,1017.69,72.40,9.17,10.49,4.91,1.00,7.63,,,
2018-07-05 03:00,28.2,,,1017.63,70.50,9.83,11.34,4.29,1.00,7.64,,,
2018-07-05 04:00,28.1,,,1017.15,72.10,10.95,12.38,5.41,1.00,8.53,,,
2018-07-05 05:00,28.1,,,1016.31,77.50,10.38,10.79,5.02,1.00,8.51,,,
2018-07-05 06:00,28.0,,,1015.83,75.10,9.17,10.33,4.74,1.00,7.87,,,
2018-07-05 07:00,28.0,,,1015.77,79.80,9.32,10.78,4.36,1.00,7.78,,,
2018-07-05 08:00,27.9,,,1015.89,78.50,8.90,9.75,4.75,1.00,7.54,,,
2018-07-05 09:00,28.0,,,1016.19,72.90,8.95,9.87,4.65,1.00,6.97,,,
2018-07-05 10:00,28.0,,,1016.49,74.20,9.43,10.68,4.59,1.00,7.57,,,
2018-07-05 11:00,28.1,,,1017.03,79.50,9.43,10.78,4.94,1.00,8.14,,,
2018-07-05 12:00,28.2,,,1017.45,78.20,9.03,10.35,4.30,1.00,7.44,,,
2018-07-05 13:00,28.3,,,1017.51,74.60,8.67,9.34,4.55,1.00,7.34,,,
2018-07-05 14:00,28.3,,,1017.69,71.50,8.87,9.82,4.61,1.00,7.29,,,
2018-07-05 15:00,28.4,,,1017.51,72.30,9.35,10.50,5.21,1.00,7.81,,,
2018-07-05 16:00,28.3,,,1017.21,77.50,8.15,9.18,4.37,1.00,6.86,,,
2018-07-05 17:00,28.4,,,1016.91,82.80,7.66,8.19,3.80,1.00,6.20,,,
2018-07-05 18:00,28.4,,,1016.49,77.70,8.26,8.83,4.16,1.00,6.80,,,
2018-07-05 19:00,28.5,,,1016.07,71.70,7.44,8.31,3.97,1.00,6.25,,,
2018-07-05 20:00,28.5,,,1015.71,68.50,7.66,8.57,4.26,1.00,6.22,,,
2018-07-05 21:00,28.5,,,1015.53,69.20,7.46,8.31,3.53,1.00,6.24,,,
2018-07-05 22:00,28.5,,,1015.65,63.93,7.77,8.83,4.16,1.00,6.28,,,
2018-07-05 23:00,28.3,,,1015.83,70.70,8.13,9.01,4.46,1.00,6.56,,,
2018-07-06 00:00,28.1,,,1016.25,71.30,8.50,9.37,2.91,1.00,6.37,,,
2018-07-06 01:00,28.3,,,1016.79,67.70,8.88,9.64,4.49,1.00,6.78,,,
2018-07-06 02:00,28.3,,,1017.09,78.00,8.68,9.60,4.09,1.00,7.14,,,
2018-07-06 03:00,28.3,,,1017.21,79.40,9.61,10.34,5.01,1.00,8.33,,,
2018-07-06 04:00,28.2,,,1016.79,82.70,9.99,10.89,5.58,1.00,7.87,,,
2018-07-06 05:00,28.2,,,1016.31,81.00,9.98,11.23,5.16,1.00,7.98,,,
2018-07-06 06:00,28.1,,,1015.83,85.00,9.19,10.48,4.86,1.00,7.67,,,
2018-07-06 07:00,28.1,,,1015.53,84.10,10.01,11.01,5.69,1.00,8.36,,,
2018-07-06 08:00,28.1,,,1015.53,88.70,9.96,10.83,5.18,1.00,8.13,,,
2018-07-06 09:00,28.0,,,1015.47,94.20,10.24,11.34,4.34,1.00,8.38,,,
2018-07-06 10:00,28.1,,,1016.07,92.20,10.03,11.13,4.30,1.00,8.60,,,
2018-07-06 11:00,28.2,,,1016.49,86.30,9.06,10.09,3.94,1.00,7.51,,,
2018-07-06 12:00,28.2,,,1016.73,87.10,9.09,10.36,4.31,1.00,7.84,,,
2018-07-06 13:00,28.4,,,1016.97,84.60,9.67,10.23,4.50,1.00,7.50,,,
2018-07-06 14:00,28.4,,,1016.97,91.10,8.50,9.72,4.59,1.00,7.55,,,
2018-07-06 15:00,28.3,,,1016.91,86.10,8.91,10.53,4.49,1.00,7.65,,,
2018-07-06 16:00,28.5,,,1016.61,90.30,8.82,9.68,4.43,1.00,6.88,,,
2018-07-06 17:00,28.6,,,1016.31,82.10,9.53,11.30,5.19,1.00,7.85,,,
2018-07-06 18:00,28.6,,,1016.01,85.30,8.43,9.38,3.62,1.00,6.97,,,
2018-07-06 19:00,28.6,,,1015.47,75.50,9.09,9.92,4.43,1.00,7.10,,,
2018-07-06 20:00,28.6,,,1015.11,72.20,8.32,9.57,4.05,1.00,6.88,,,
2018-07-06 21:00,28.7,,,1014.99,85.50,8.96,9.85,3.87,1.00,7.20,,,
2018-07-06 22:00,28.5,,,1015.05,76.50,10.19,11.19,4.82,1.00,7.95,,,
2018-07-06 23:00,28.4,,,1015.41,76.10,10.20,11.56,4.86,1.00,8.22,,,
2018-07-07 00:00,28.4,,,1015.71,76.70,10.78,11.80,5.14,1.00,8.53,,,
2018-07-07 01:00,28.4,,,1016.13,84.40,9.81,11.22,4.60,1.00,8.76,,,
2018-07-07 02:00,28.4,,,1016.25,75.40,10.11,11.53,5.20,1.00,8.48,,,
2018-07-07 03:00,28.2,,,1016.13,78.50,9.16,9.98,4.64,1.00,7.68,,,
2018-07-07 04:00,28.3,,,1015.83,86.10,10.22,11.16,4.77,1.00,8.51,,,
2018-07-07 05:00,28.2,,,1015.35,78.50,10.46,11.68,6.35,1.00,8.84,,,
2018-07-07 06:00,28.3,,,1014.87,84.00,11.17,12.70,5.62,1.00,9.69,,,
2018-07-07 07:00,28.1,,,1014.93,85.50,10.99,12.85,5.51,1.00,9.20,,,
2018-07-07 08:00,28.2,,,1014.81,86.00,11.50,12.59,5.95,1.00,9.46,,,
2018-07-07 09:00,28.1,,,1015.17,81.40,10.36,11.22,5.60,1.00,8.52,,,
2018-07-07 10:00,28.0,,,1015.47,91.90,12.51,13.56,5.67,1.00,9.70,,,
2018-07-07 11:00,28.3,,,1016.49,89.00,11.60,12.60,6.72,1.00,9.85,,,
2018-07-07 12:00,28.4,,,1016.73,93.70,11.28,12.33,5.57,1.00,9.24,,,
2018-07-07 13:00,28.4,,,1017.15,93.90,10.02,10.93,4.73,1.00,8.20,,,
2018-07-07 14:00,28.5,,,1017.33,89.40,10.58,12.38,4.38,1.00,8.24,,,
2018-07-07 15:00,28.6,,,1017.33,90.80,9.97,11.34,4.59,1.00,7.94,,,
2018-07-07 16:00,28.5,,,1016.97,82.80,9.35,10.54,5.41,1.00,7.99,,,
2018-07-07 17:00,28.6,,,1016.73,82.40,9.05,10.61,5.22,1.00,7.67,,,
2018-07-07 18:00,28.6,,,1016.25,80.40,9.61,10.53,5.11,1.00,7.66,,,
2018-07-07 19:00,28.5,,,1015.83,77.10,9.51,10.67,4.33,1.00,7.06,,,
2018-07-07 20:00,28.1,,,1015.29,78.60,9.75,10.84,5.16,1.00,8.03,,,
2018-07-07 21:00,28.6,,,1015.17,74.10,10.73,12.28,5.72,1.00,9.05,,,
2018-07-07 22:00,28.4,,,1015.17,68.80,10.33,11.23,5.22,1.00,8.29,,,
2018-07-07 23:00,28.4,,,1015.71,70.80,10.30,11.46,5.54,1.00,8.39,,,
2018-07-08 00:00,28.4,,,1016.25,66.90,10.43,11.38,5.09,1.00,8.43,,,
2018-07-08 01:00,28.4,,,1016.79,67.00,10.09,11.53,5.03,1.00,8.57,,,
2018-07-08 02:00,28.3,,,1017.27,70.50,10.36,12.03,5.37,1.00,8.53,,,
2018-07-08 03:00,28.3,,,1017.15,71.20,10.19,11.08,4.92,1.00,8.14,,,
2018-07-08 04:00,28.2,,,1016.91,69.90,9.75,11.42,5.12,1.00,7.88,,,
2018-07-08 05:00,28.3,,,1016.19,63.90,9.94,11.00,4.80,1.00,7.90,,,
2018-07-08 06:00,28.2,,,1015.83,64.13,10.01,10.63,4.58,1.00,7.73,,,
2018-07-08 07:00,28.2,,,1015.53,62.04,10.55,11.56,5.61,1.00,8.54,,,
2018-07-08 08:00,27.4,,,1015.53,72.00,8.73,9.56,3.98,1.00,6.72,,,
2018-07-08 09:00,28.1,,,1015.41,47.79,8.81,9.66,4.15,1.00,7.47,,,
2018-07-08 10:00,28.0,,,1015.41,67.10,10.36,10.99,4.78,1.00,8.05,,,
2018-07-08 11:00,26.9,,,1016.25,55.71,9.60,11.20,5.07,1.00,8.29,,,
2018-07-08 12:00,28.0,,,1016.31,64.81,10.52,11.91,5.06,1.00,8.90,,,
2018-07-08 13:00,27.3,,,1016.37,83.70,11.89,13.63,6.56,1.00,9.64,,,
2018-07-08 14:00,28.2,,,1016.73,78.80,12.22,12.98,6.24,1.00,8.94,,,
2018-07-08 15:00,28.5,,,1016.55,77.00,11.07,12.63,5.43,1.00,8.56,,,
2018-07-08 16:00,28.6,,,1016.37,84.90,10.82,11.74,5.80,1.00,9.15,,,
2018-07-08 17:00,28.6,,,1015.71,78.60,11.69,12.80,6.03,1.00,9.22,,,
2018-07-08 18:00,28.6,,,1015.47,76.10,10.33,12.18,5.06,1.00,8.48,,,
2018-07-08 19:00,28.5,,,1014.99,77.60,11.13,11.99,5.47,1.00,8.79,,,
2018-07-08 20:00,28.5,,,1015.05,80.40,9.27,9.99,3.86,1.00,7.85,,,
2018-07-08 21:00,28.5,,,1014.93,76.70,9.51,11.02,5.11,1.00,7.74,,,
2018-07-08 22:00,28.1,,,1015.11,72.40,8.95,10.15,4.64,1.00,7.41,,,
2018-07-08 23:00,28.5,,,1015.47,71.30,11.43,12.09,5.35,1.00,8.32,,,
2018-07-09 00:00,28.5,,,1015.65,70.40,10.67,11.53,5.39,1.00,8.84,,,
2018-07-09 01:00,28.5,,,1015.95,73.30,11.38,12.86,5.64,1.00,9.40,,,
2018-07-09 02:00,28.5,,,1016.43,69.80,11.03,11.87,5.00,1.00,8.48,,,
2018-07-09 03:00,28.5,,,1016.25,69.20,10.29,12.00,4.56,1.00,8.75,,,
2018-07-09 04:00,28.3,,,1015.65,68.70,10.52,11.44,4.59,1.00,8.30,,,
2018-07-09 05:00,26.5,,,1015.05,67.60,10.56,11.35,5.76,1.00,9.04,,,
2018-07-09 06:00,28.1,,,1014.33,69.90,10.47,11.83,5.80,1.00,9.00,,,
2018-07-09 07:00,27.6,,,1014.27,69.10,10.29,10.91,5.36,1.00,8.43,,,
2018-07-09 08:00,28.2,,,1014.03,73.60,10.92,11.72,5.71,1.00,8.68,,,
2018-07-09 09:00,27.4,,,1014.03,65.16,11.17,12.48,5.90,1.00,8.86,,,
2018-07-09 10:00,28.0,,,1014.27,74.10,12.23,13.24,6.16,1.00,10.27,,,
2018-07-09 11:00,25.3,,,1014.75,83.90,17.34,18.84,9.03,1.00,13.75,,,
2018-07-09 12:00,26.5,,,1015.23,99.30,10.35,11.09,3.74,1.00,8.52,,,
2018-07-09 13:00,27.5,,,1015.35,100.20,12.54,13.58,5.76,1.00,10.17,,,
2018-07-09 14:00,27.5,,,1015.47,105.60,11.50,13.22,5.82,1.00,9.08,,,
2018-07-09 15:00,27.8,,,1015.41,96.00,11.86,12.85,6.11,1.00,9.57,,,
2018-07-09 16:00,27.9,,,1015.83,113.80,13.32,14.24,6.24,1.00,9.83,,,
2018-07-09 17:00,28.3,,,1015.83,111.20,11.50,13.27,6.60,1.00,9.23,,,
2018-07-09 18:00,28.3,,,1015.71,105.60,11.04,12.33,5.50,1.00,8.92,,,
2018-07-09 19:00,28.1,,,1015.17,91.70,10.76,12.11,5.73,1.00,8.50,,,
2018-07-09 20:00,28.1,,,1014.75,85.70,9.79,10.36,4.67,1.00,7.90,,,
2018-07-09 21:00,25.9,,,1015.11,109.80,11.95,12.88,5.80,1.00,9.98,,,
2018-07-09 22:00,28.0,,,1015.23,89.00,10.02,12.18,5.24,1.00,8.06,,,
2018-07-09 23:00,28.1,,,1015.05,95.20,10.13,11.79,5.11,1.00,8.97,,,
2018-07-10 00:00,28.4,,,1015.89,91.80,10.15,11.12,5.67,1.00,8.29,,,
2018-07-10 01:00,28.5,,,1016.55,101.10,10.00,11.35,5.66,1.00,8.53,,,
2018-07-10 02:00,28.5,,,1017.39,92.90,9.72,10.85,5.03,1.00,7.98,,,
2018-07-10 03:00,28.4,,,1017.33,98.60,9.87,10.54,5.26,1.00,7.91,,,
2018-07-10 04:00,28.3,,,1016.79,99.40,10.33,11.29,5.79,1.00,8.19,,,
2018-07-10 05:00,28.2,,,1016.25,104.10,9.54,10.80,4.88,1.00,8.33,,,
2018-07-10 06:00,28.1,,,1015.83,102.80,9.10,10.31,4.41,1.00,7.39,,,
2018-07-10 07:00,28.1,,,1015.41,94.20,9.77,11.14,4.84,1.00,8.26,,,
2018-07-10 08:00,28.0,,,1015.11,91.70,9.39,10.56,5.18,1.00,8.06,,,
2018-07-10 09:00,28.2,,,1015.41,91.30,10.51,11.66,5.52,1.00,8.95,,,
2018-07-10 10:00,28.2,,,1015.89,98.30,9.47,10.46,3.46,1.00,7.64,,,
2018-07-10 11:00,28.3,,,1016.37,90.80,10.66,11.13,4.80,1.00,8.20,,,
2018-07-10 12:00,28.3,,,1016.61,90.50,11.34,12.24,4.84,1.00,9.11,,,
2018-07-10 13:00,28.4,,,1016.67,87.50,12.02,13.30,5.81,1.00,9.36,,,
2018-07-10 14:00,28.5,,,1016.97,92.70,10.21,11.38,5.03,1.00,8.44,,,
2018-07-10 15:00,28.5,,,1016.85,95.30,9.63,11.02,5.19,1.00,8.04,,,
2018-07-10 16:00,28.6,,,1016.61,96.00,9.85,10.49,4.23,1.00,8.14,,,
2018-07-10 17:00,28.7,,,1016.19,103.10,10.15,10.91,4.56,1.00,8.36,,,
2018-07-10 18:00,28.6,,,1015.47,106.10,9.70,10.68,4.85,1.00,7.76,,,
2018-07-10 19:00,28.7,,,1014.93,107.90,8.66,9.67,4.25,1.00,7.42,,,
2018-07-10 20:00,28.8,,,1014.75,103.20,8.03,8.76,4.13,1.00,6.47,,,
2018-07-10 21:00,28.7,,,1014.51,93.40,8.01,9.13,3.42,1.00,6.25,,,
2018-07-10 22:00,28.5,,,1014.81,85.10,6.49,7.49,3.18,1.00,5.61,,,
2018-07-10 23:00,28.5,,,1015.05,92.80,7.17,8.63,2.66,1.00,6.01,,,
2018-07-11 00:00,28.3,,,1015.41,87.30,6.36,7.95,3.00,1.00,5.30,,,
2018-07-11 01:00,28.5,,,1016.19,91.70,7.80,9.00,4.56,1.00,6.61,,,
2018-07-11 02:00,28.2,,,1016.67,100.20,8.52,9.27,3.22,1.00,5.98,,,
2018-07-11 03:00,28.5,,,1016.97,86.50,8.85,10.10,4.23,1.00,7.72,,,
2018-07-11 04:00,28.4,,,1016.49,83.30,9.86,10.78,4.59,1.00,7.90,,,
2018-07-11 05:00,28.3,,,1016.19,88.00,9.63,11.04,4.82,1.00,7.88,,,
2018-07-11 06:00,28.2,,,1015.77,78.40,9.07,9.50,4.17,1.00,6.77,,,
2018-07-11 07:00,28.1,,,1015.65,72.50,9.40,10.58,4.93,1.00,8.21,,,
2018-07-11 08:00,28.4,,,1015.89,81.40,9.19,10.61,4.34,1.00,7.61,,,
2018-07-11 09:00,28.4,,,1016.07,81.20,9.73,10.91,4.54,1.00,7.48,,,
2018-07-11 10:00,28.4,,,1016.37,89.10,9.05,10.07,4.39,1.00,7.39,,,
2018-07-11 11:00,28.3,,,1017.03,84.40,9.11,10.08,5.29,1.00,7.68,,,
2018-07-11 12:00,27.9,,,1017.21,78.70,8.88,9.92,4.30,1.00,6.92,,,
2018-07-11 13:00,28.4,,,1017.21,88.20,9.24,9.93,4.39,1.00,7.50,,,
2018-07-11 14:00,28.6,,,1017.33,94.40,9.16,10.04,4.57,1.00,7.33,,,
2018-07-11 15:00,28.5,,,1016.97,81.20,9.29,10.52,5.24,1.00,7.58,,,
2018-07-11 16:00,28.4,,,1016.55,94.30,8.48,9.73,4.76,1.00,7.07,,,
2018-07-11 17:00,28.5,,,1016.31,86.50,8.92,9.71,4.71,1.00,7.51,,,
2018-07-11 18:00,28.6,,,1016.01,90.50,7.93,9.07,4.20,1.00,6.67,,,
2018-07-11 19:00,28.8,,,1015.35,89.40,8.50,9.82,4.41,1.00,7.07,,,
2018-07-11 20:00,28.5,,,1014.99,71.00,9.04,10.15,5.29,1.00,7.63,,,
2018-07-11 21:00,28.4,,,1014.75,75.30,9.28,10.40,4.77,1.00,7.78,,,
2018-07-11 22:00,28.4,,,1014.93,79.20,8.38,8.95,4.07,1.00,7.40,,,
2018-07-11 23:00,28.3,,,1015.47,75.30,9.02,9.95,5.26,1.00,8.06,,,
2018-07-12 00:00,28.3,,,1015.89,77.80,9.95,10.57,5.35,1.00,7.91,,,
2018-07-12 01:00,28.2,,,1016.43,74.10,10.84,11.53,4.78,1.00,8.47,,,
2018-07-12 02:00,28.2,,,1017.27,73.20,9.30,10.19,4.51,1.00,7.85,,,
2018-07-12 03:00,28.1,,,1017.45,74.40,9.30,10.28,4.98,1.00,7.58,,,
2018-07-12 04:00,28.1,,,1017.27,71.30,8.62,9.70,4.45,1.00,7.11,,,
2018-07-12 05:00,28.0,,,1016.67,73.60,8.58,9.60,3.84,1.00,7.29,,,
2018-07-12 06:00,28.0,,,1016.43,72.30,7.76,8.60,4.00,1.00,6.47,,,
2018-07-12 07:00,27.8,,,1016.43,89.10,9.30,10.56,4.57,1.00,7.87,,,
2018-07-12 08:00,27.8,,,1016.55,82.50,8.19,9.36,3.82,1.00,6.94,,,
2018-07-12 09:00,27.7,,,1016.85,80.10,7.92,8.67,4.23,1.00,6.22,,,
2018-07-12 10:00,27.8,,,1017.03,77.20,8.13,8.73,3.74,1.00,6.08,,,
2018-07-12 11:00,28.0,,,1017.33,76.10,8.32,9.03,3.26,1.00,6.20,,,
2018-07-12 12:00,28.1,,,1017.63,76.90,8.91,9.68,4.65,1.00,6.94,,,
2018-07-12 13:00,28.0,,,1017.93,75.30,7.81,8.50,3.90,1.00,6.24,,,
2018-07-12 14:00,27.9,,,1018.17,76.20,8.44,9.38,4.91,1.00,7.18,,,
2018-07-12 15:00,28.0,,,1018.29,82.10,8.58,9.63,3.94,1.00,6.71,,,
2018-07-12 16:00,28.0,,,1018.11,92.60,7.60,8.65,4.15,1.00,6.17,,,
2018-07-12 17:00,28.0,,,1017.57,88.30,7.12,7.81,3.91,1.00,5.75,,,
2018-07-12 18:00,28.1,,,1017.15,80.50,7.66,8.46,3.87,1.00,6.60,,,
2018-07-12 19:00,28.2,,,1016.61,76.40,9.11,9.95,4.65,1.00,6.78,,,
2018-07-12 20:00,28.3,,,1016.37,76.40,8.11,9.30,3.14,1.00,6.94,,,
2018-07-12 21:00,28.3,,,1016.25,75.60,9.42,10.51,4.72,1.00,7.53,,,
2018-07-12 22:00,28.3,,,1016.49,82.20,8.08,8.97,4.48,1.00,6.71,,,
2018-07-12 23:00,28.2,,,1016.97,75.00,8.35,9.52,4.65,1.00,6.97,,,
2018-07-13 00:00,28.2,,,1017.81,75.10,8.87,9.75,4.80,1.00,7.65,,,
2018-07-13 01:00,28.2,,,1018.35,84.20,8.12,9.01,3.70,1.00,6.84,,,
2018-07-13 02:00,28.2,,,1018.95,88.30,7.83,8.71,4.04,1.00,7.00,,,
2018-07-13 03:00,28.1,,,1018.71,85.40,8.67,9.73,3.76,1.00,6.74,,,
2018-07-13 04:00,28.1,,,1018.05,86.50,8.17,9.19,4.31,1.00,6.53,,,
2018-07-13 05:00,28.0,,,1017.45,94.60,9.85,10.54,4.14,1.00,7.63,,,
2018-07-13 06:00,28.0,,,1016.97,86.40,8.91,9.89,4.08,1.00,6.97,,,
2018-07-13 07:00,27.9,,,1016.55,89.20,8.55,9.29,4.77,1.00,6.92,,,
2018-07-13 08:00,27.9,,,1016.55,97.60,8.67,9.71,4.13,1.00,6.95,,,
2018-07-13 09:00,28.0,,,1016.49,102.10,8.78,9.62,4.77,1.00,7.14,,,
2018-07-13 10:00,28.0,,,1016.61,106.10,9.04,10.02,4.12,1.00,7.88,,,
2018-07-13 11:00,28.0,,,1016.85,106.60,9.47,10.99,5.91,1.00,8.02,,,
2018-07-13 12:00,28.2,,,1017.09,101.10,9.67,10.69,5.12,1.00,7.92,,,
2018-07-13 13:00,28.1,,,1017.51,97.00,9.39,11.31,4.98,1.00,7.85,,,
2018-07-13 14:00,28.4,,,1018.05,102.30,9.81,10.81,5.67,1.00,8.20,,,
2018-07-13 15:00,28.3,,,1018.35,95.40,8.71,9.95,4.54,1.00,7.11,,,
2018-07-13 16:00,28.5,,,1018.35,95.70,8.08,9.13,4.46,1.00,7.18,,,
2018-07-13 17:00,28.5,,,1018.05,93.40,8.35,9.73,4.26,1.00,7.18,,,
2018-07-13 18:00,28.5,,,1017.45,91.80,8.44,8.91,3.97,1.00,6.62,,,
2018-07-13 19:00,28.5,,,1017.09,82.20,7.58,8.39,4.41,1.00,6.33,,,
2018-07-13 20:00,28.5,,,1016.79,81.70,8.67,9.49,4.62,1.00,6.91,,,
2018-07-13 21:00,28.5,,,1016.55,81.20,7.99,9.08,4.40,1.00,6.58,,,
2018-07-13 22:00,28.4,,,1016.49,74.60,8.83,9.51,3.97,1.00,7.30,,,